Wilmington, OH

3:33 AM EST on February 28, 2017 (GMT -0500)
Airborne

Weather History for KILN - March, 2013

Change the Weather History Date:

Monday, March 25, 2013

  Actual Average (KFFO) Record (KFFO)
Temperature  
Mean Temperature 30 °F -  
Max Temperature 33 °F 53 °F 134 °F (2003)
Min Temperature 28 °F 32 °F 19 °F (2001)
Degree Days  
Heating Degree Days 34    
Moisture  
Dew Point 30 °F    
Average Humidity 93    
Maximum Humidity 100    
Minimum Humidity 81    
Precipitation  
Precipitation 0.10 in - - ()
Sea Level Pressure  
Sea Level Pressure 29.62 in    
Wind  
Wind Speed 7 mph (WNW)    
Max Wind Speed 16 mph    
Max Gust Speed 22 mph    
Visibility 2 miles    
Events Fog , Snow    
Averages and records for this station are not official NWS values.
T = Trace of Precipitation, MM = Missing Value Source: NWS Daily Summary

Daily Weather History Graph

Daily Weather History Graph

Search for Another Location

Airport or City:

Trip Planner

Search our weather history database for the weather conditions in past years. The results will help you decide how hot, cold, wet, or windy it might be!

Date:

Astronomy

Mar. 25, 2013 Rise Set
Actual Time 7:30 AM EDT 7:52 PM EDT
Civil Twilight 7:03 AM EDT 8:19 PM EDT
Nautical Twilight 6:31 AM EDT 8:50 PM EDT
Astronomical Twilight 5:59 AM EDT 9:23 PM EDT
Moon 6:23 PM EDT (3/25) 6:12 AM EDT (3/25)
Length of Visible Light 13h 15m
Length of Day
12h 22m
Waxing Gibbous, 96% of the Moon is Illuminated
Mar 25
Waxing Gibbous
Mar 27
Full
Apr 3
Last Quarter
Apr 10
New
Apr 18
First Quarter

Hourly Weather History & Observations

Time (EDT) Temp. Windchill Dew Point Humidity Pressure Visibility Wind Dir Wind Speed Gust Speed Precip Events Conditions
12:51 AM 32.0 °F - 32.0 °F 100% 29.40 in 1.8 mi Calm Calm - 0.02 in Snow Light Snow
12:54 AM 32.0 °F - 32.0 °F 100% 29.47 in 1.8 mi Calm Calm - 0.02 in   Overcast
1:04 AM 32.0 °F - 32.0 °F 100% 29.40 in 2.0 mi Calm Calm - 0.00 in   Overcast
1:21 AM 32.0 °F 28.7 °F 32.0 °F 100% 29.40 in 1.5 mi NE 3.5 mph - 0.01 in   Overcast
1:52 AM 32.0 °F - 32.0 °F 100% 29.40 in 1.2 mi Calm Calm - 0.03 in Snow Light Snow
1:54 AM 32.0 °F - 32.0 °F 100% 29.47 in 1.2 mi Calm Calm - 0.03 in Snow Light Snow
2:32 AM 32.0 °F - 32.0 °F 100% 29.40 in 1.5 mi Calm Calm - 0.01 in   Overcast
2:54 AM 33.1 °F - 32.0 °F 96% 29.47 in 1.8 mi Calm Calm - 0.01 in   Overcast
3:32 AM 32.0 °F - 32.0 °F 100% 29.40 in 0.8 mi Calm Calm - N/A   Overcast
3:54 AM 32.0 °F 27.5 °F 32.0 °F 100% 29.47 in 0.5 mi SW 4.6 mph - N/A Fog Fog
4:18 AM 32.0 °F 24.2 °F 32.0 °F 100% 29.40 in 1.2 mi SW 9.2 mph - N/A   Overcast
4:31 AM 32.0 °F 25.6 °F 32.0 °F 100% 29.40 in 2.5 mi West 6.9 mph - N/A   Overcast
4:54 AM 30.0 °F 23.2 °F 30.0 °F 100% 29.47 in 3.0 mi North 6.9 mph - 0.00 in   Overcast
5:54 AM 30.9 °F 26.2 °F 30.0 °F 96% 29.47 in 5.0 mi West 4.6 mph - N/A   Overcast
6:54 AM 30.9 °F 23.5 °F 30.0 °F 96% 29.48 in 3.0 mi WNW 8.1 mph - N/A   Overcast
7:54 AM 28.9 °F 19.8 °F 28.0 °F 96% 29.52 in 1.5 mi West 10.4 mph - 0.00 in Snow Light Snow
8:09 AM 28.4 °F 18.5 °F 28.4 °F 100% 29.45 in 1.5 mi West 11.5 mph - 0.00 in Snow Light Snow
8:23 AM 28.4 °F 19.7 °F 28.4 °F 100% 29.45 in 2.0 mi West 9.2 mph - 0.00 in Snow Light Snow
8:54 AM 30.0 °F 21.1 °F 28.0 °F 92% 29.53 in 2.0 mi West 10.4 mph - 0.00 in Snow Light Snow
9:14 AM 30.2 °F 19.8 °F 28.4 °F 93% 29.46 in 1.2 mi West 13.8 mph - 0.00 in Snow Light Snow
9:49 AM 30.2 °F 19.8 °F 28.4 °F 93% 29.47 in 3.0 mi West 13.8 mph 20.7 mph 0.00 in   Overcast
9:54 AM 30.0 °F 19.1 °F 28.0 °F 92% 29.55 in 3.0 mi West 15.0 mph - 0.00 in Snow Light Snow
10:02 AM 30.2 °F 19.8 °F 28.4 °F 93% 29.48 in 2.0 mi West 13.8 mph - 0.00 in Snow Light Snow
10:10 AM 30.2 °F 18.9 °F 28.4 °F 93% 29.48 in 1.5 mi West 16.1 mph - 0.00 in Snow Light Snow
10:26 AM 30.2 °F 19.8 °F 26.6 °F 86% 29.49 in 2.0 mi West 13.8 mph - 0.00 in Snow Light Snow
10:40 AM 30.2 °F 20.8 °F 28.4 °F 93% 29.49 in 1.2 mi West 11.5 mph - 0.00 in Snow Light Snow
10:54 AM 30.0 °F 20.0 °F 28.0 °F 92% 29.57 in 1.5 mi West 12.7 mph 20.7 mph 0.00 in Snow Light Snow
11:17 AM 30.2 °F 19.8 °F 28.4 °F 93% 29.51 in 2.5 mi West 13.8 mph - 0.00 in Snow Light Snow
11:27 AM 30.2 °F 19.8 °F 28.4 °F 93% 29.52 in 3.0 mi West 13.8 mph - 0.00 in Snow Light Snow
11:54 AM 30.9 °F 20.7 °F 27.0 °F 85% 29.60 in 4.0 mi West 13.8 mph - 0.00 in Snow Light Snow
12:04 PM 30.2 °F 20.8 °F 28.4 °F 93% 29.54 in 1.8 mi West 11.5 mph - 0.00 in Snow Light Snow
12:54 PM 30.9 °F 21.7 °F 28.0 °F 89% 29.63 in 1.5 mi West 11.5 mph - 0.01 in Snow Light Snow
1:13 PM 32.0 °F 23.0 °F 28.4 °F 87% 29.57 in 2.5 mi West 11.5 mph - 0.00 in Snow Light Snow
1:42 PM 32.0 °F 22.5 °F 28.4 °F 87% 29.58 in 1.5 mi West 12.7 mph - 0.00 in Snow Light Snow
1:54 PM 32.0 °F 23.0 °F 30.0 °F 92% 29.66 in 1.0 mi West 11.5 mph - 0.00 in Snow Light Snow
2:05 PM 32.0 °F 22.5 °F 30.2 °F 93% 29.59 in 0.8 mi West 12.7 mph - 0.00 in Snow Light Snow
2:23 PM 32.0 °F 21.6 °F 30.2 °F 93% 29.59 in 1.0 mi WNW 15.0 mph 19.6 mph 0.01 in Snow Light Snow
2:54 PM 32.0 °F 22.1 °F 30.0 °F 92% 29.67 in 1.8 mi WNW 13.8 mph - 0.01 in Snow Light Snow
3:06 PM 33.8 °F 23.9 °F 30.2 °F 87% 29.61 in 2.0 mi WNW 15.0 mph 20.7 mph 0.00 in Snow Light Snow
3:13 PM 33.8 °F 24.8 °F 30.2 °F 87% 29.61 in 1.5 mi WNW 12.7 mph - 0.00 in Snow Light Snow
3:54 PM 33.1 °F 23.4 °F 30.0 °F 89% 29.70 in 1.2 mi WNW 13.8 mph - 0.00 in Snow Light Snow
4:20 PM 33.8 °F 25.3 °F 30.2 °F 87% 29.65 in 2.0 mi NW 11.5 mph - 0.00 in Snow Light Snow
4:54 PM 33.1 °F 23.9 °F 28.9 °F 85% 29.75 in 2.5 mi WNW 12.7 mph 21.9 mph 0.00 in Snow Light Snow
5:20 PM 33.8 °F 25.3 °F 28.4 °F 81% 29.69 in 1.8 mi NW 11.5 mph 20.7 mph 0.01 in Snow Light Snow
5:28 PM 32.0 °F 21.6 °F 28.4 °F 87% 29.69 in 2.0 mi NW 15.0 mph - 0.01 in Snow Light Snow
5:38 PM 32.0 °F 22.1 °F 28.4 °F 87% 29.70 in 1.8 mi NW 13.8 mph - 0.01 in Snow Light Snow
5:54 PM 32.0 °F 23.0 °F 28.9 °F 88% 29.79 in 1.8 mi NW 11.5 mph - 0.01 in Snow Light Snow
6:02 PM 32.0 °F 23.6 °F 28.4 °F 87% 29.72 in 1.8 mi NW 10.4 mph - 0.00 in Snow Light Snow
6:11 PM 32.0 °F 22.5 °F 28.4 °F 87% 29.72 in 2.0 mi WNW 12.7 mph - 0.00 in Snow Light Snow
6:20 PM 32.0 °F 22.1 °F 28.4 °F 87% 29.72 in 1.8 mi WNW 13.8 mph - 0.00 in Snow Light Snow
6:25 PM 32.0 °F 23.0 °F 28.4 °F 87% 29.73 in 1.5 mi NW 11.5 mph 18.4 mph 0.00 in Snow Light Snow
6:54 PM 32.0 °F 23.0 °F 30.0 °F 92% 29.82 in 1.5 mi NW 11.5 mph - 0.00 in Snow Light Snow
7:21 PM 32.0 °F 23.0 °F 30.2 °F 93% 29.77 in 1.2 mi NW 11.5 mph - 0.00 in Snow Light Snow
7:54 PM 32.0 °F 22.5 °F 30.9 °F 96% 29.87 in 1.2 mi WNW 12.7 mph - 0.00 in Snow Light Snow
8:10 PM 32.0 °F 23.0 °F 30.2 °F 93% 29.80 in 1.8 mi WNW 11.5 mph - 0.00 in Snow Light Snow
8:13 PM 32.0 °F 23.6 °F 30.2 °F 93% 29.80 in 2.0 mi WNW 10.4 mph - 0.00 in Snow Light Snow
8:23 PM 32.0 °F 23.0 °F 30.2 °F 93% 29.81 in 1.8 mi WNW 11.5 mph - 0.00 in Snow Light Snow
8:36 PM 32.0 °F 22.1 °F 30.2 °F 93% 29.82 in 2.0 mi WNW 13.8 mph - 0.00 in Snow Light Snow
8:51 PM 32.0 °F 23.0 °F 30.2 °F 93% 29.82 in 3.0 mi WNW 11.5 mph - 0.00 in Snow Light Snow
8:54 PM 32.0 °F 22.5 °F 30.0 °F 92% 29.90 in 4.0 mi WNW 12.7 mph - 0.00 in Snow Light Snow
9:54 PM 32.0 °F 23.6 °F 30.0 °F 92% 29.93 in 4.0 mi WNW 10.4 mph - 0.00 in Snow Light Snow
10:39 PM 32.0 °F 23.0 °F 30.2 °F 93% 29.87 in 2.5 mi WNW 11.5 mph - 0.00 in Snow Light Snow
10:54 PM 32.0 °F 23.0 °F 30.0 °F 92% 29.95 in 2.0 mi WNW 11.5 mph - 0.00 in Snow Light Snow
11:04 PM 32.0 °F 22.5 °F 30.2 °F 93% 29.87 in 1.8 mi WNW 12.7 mph - 0.00 in Snow Light Snow
11:11 PM 32.0 °F 24.2 °F 30.2 °F 93% 29.88 in 2.0 mi WNW 9.2 mph - 0.00 in Snow Light Snow
11:39 PM 32.0 °F 23.6 °F 30.2 °F 93% 29.89 in 3.0 mi WNW 10.4 mph - 0.01 in Snow Light Snow
11:54 PM 32.0 °F 23.0 °F 30.0 °F 92% 29.96 in 4.0 mi NW 11.5 mph - 0.01 in Snow Light Snow